Location: Mladá Boleslav
(50.4134°N, 14.9084°E)
Time: 13:01:12
(UTC+02:00)

KKS-1 - Pass Details

Date: 28 May 2024
Orbit: 626 x 640 km, 98.1° (Epoch: 16 June)

Event Time Altitude Azimuth Distance (km) Brightness Sun altitude
Rises 00:29:22 0° 14° (NNE) 2,942 ? -17.8°
Reaches altitude 10° 00:31:35 10° 15° (NNE) 2,027 ? -17.9°
Maximum altitude 00:36:00 87° 101° (E) 639 ? -17.9°
Enters shadow 00:37:46 36° 193° (SSW) 999 ? -18.0°
